[[{"header":{"parameterUnit":"m.s-1","parameterCategory":1,"la1":30.2991,"la2":30.254,"lo1":-89.0895,"lo2":-89.0444,"dy":0.0017,"dx":0.0017,"nx":28,"ny":28,"refTime":"2025-12-15T09:00:00:Z","depth":0,"parameterNumber":2,"parameterNumberName":"U-component_of_WINDS"},"data":[0,0,0,0,0,0,0,0,0,0,0,0,0,0,0,0,0,0,0,0,0,0,0,0,0,0,0,0,0,0,0,0,0,0,0,0,0,0,0,0,0,0,0,0,0,0,0,0,0,0,0,0,0,0,0,0,0,0,-2.967,-2.967,0,-2.9698,-2.9698,-2.9699,-2.9615,-2.9612,-2.961,-2.9607,-2.9638,-2.9641,-2.9645,0,0,0,0,0,0,0,0,0,0,0,0,0,-2.9545,-2.9548,-2.967,-2.967,-2.967,-2.9698,-2.9698,-2.9699,-2.9615,-2.9612,-2.9609,-2.9606,-2.9637,-2.9641,-2.9645,0,0,0,0,0,0,0,0,0,0,0,0,0,-2.9589,-2.9549,-2.967,-2.9632,-2.9629,-2.9698,-2.9698,-2.9699,-2.9616,-2.9612,-2.9608,-2.9605,-2.9636,-2.9641,-2.9645,-2.9753,0,0,-2.966,-2.9662,0,0,0,0,0,0,0,0,-2.9587,-2.9594,-2.9637,-2.9635,-2.9631,-2.9649,-2.9666,-2.9717,-2.9617,-2.9621,-2.9607,-2.9603,-2.9645,-2.9649,-2.9663,-2.9754,-2.9755,-2.9661,-2.9664,-2.9666,-2.9667,0,0,0,0,0,0,0,-2.9584,-2.9592,-2.9681,-2.9638,-2.9634,-2.9614,-2.9616,-2.9675,-2.9654,-2.962,-2.9614,-2.9619,-2.9643,-2.9658,-2.9663,-2.9756,-2.9661,-2.9665,-2.9668,-2.967,-2.9938,-2.9942,0,0,0,0,0,0,-2.9585,-2.959,-2.968,-2.9682,-2.9599,-2.962,-2.9622,-2.9647,-2.9654,-2.9651,-2.9622,-2.9615,-2.9652,-2.9657,-2.9664,-2.9791,-2.9666,-2.967,-2.9673,-2.9933,-2.9938,-2.9943,0,0,0,0,0,0,-2.9583,-2.9594,-2.9679,-2.9634,-2.9643,-2.9626,-2.9655,-2.965,-2.9665,-2.9655,-2.9651,-2.9642,-2.9649,-2.9657,-2.9731,-2.9791,-2.9672,-2.9677,-2.9928,-2.9935,-2.9941,-3.0045,0,0,0,0,0,0,-2.958,-2.9594,-2.9634,-2.9636,-2.9646,-2.9746,-2.9659,-2.9653,-2.9674,-2.9664,-2.9672,-2.967,-2.9647,-2.9725,-2.9736,-2.9795,-2.9681,-2.9923,-2.9931,-2.9939,-3.0036,-3.0054,-3.007,0,0,0,0,0,-2.9575,-2.9662,-2.9636,-2.9648,-2.9696,-2.9749,-2.9755,-2.9727,-2.9679,-2.9719,-2.9713,-2.967,-2.9782,-2.9733,-2.9745,-2.9807,-2.9919,-2.9929,-2.9938,-3.0029,-3.0051,-3.0069,0,0,0,0,0,0,-2.9669,-2.9662,-2.9633,-2.9723,-2.9737,-2.9735,-2.9786,-2.975,-2.9779,-2.977,-2.9733,-2.9735,-2.9817,-2.9819,-2.9764,-2.9911,-2.9842,-2.9855,-2.9907,-2.9928,-2.9944,-2.9943,-2.9685,0,0,0,0,0,-2.97,-2.9743,-2.9735,-2.9815,-2.9824,-2.9804,-2.9826,-2.9802,-2.9816,-2.9822,-2.982,-2.9836,-2.9874,-2.9901,-2.9936,-3.0035,-3.0037,-3.0084,-3.01,-3.0114,-3.0126,-3.018,-3.0201,-2.9974,-2.9974,-2.9974,0,0,-2.9764,-2.9766,-2.9796,-2.9834,-2.9842,-2.9889,-2.9809,-2.9862,-2.9896,-2.983,-2.99,-2.99,-2.9914,-3.0003,-3.0041,-3.0007,-3.0189,-3.0126,-3.0137,-3.0142,-3.0192,-3.0214,-3.0233,-2.9981,-2.9979,-2.9978,0,0,-2.9906,-2.9911,-2.9979,-2.9989,-3.0002,-2.9988,-3.0005,-3.0008,-3.0005,-3.0075,-3.0026,-3.0067,-3.0134,-3.0147,-3.0162,-3.0309,-3.0271,-3.0321,-3.0409,-3.0462,-3.048,-3.0495,-3.0549,-3.0569,-3.0332,-3.0333,-3.0333,0,-2.9986,-3.0053,-3.0019,-3.0075,-3.0094,-3.0034,-3.0104,-3.0115,-3.014,-3.0154,-3.0115,-3.0198,-3.0204,-3.0294,-3.033,-3.0344,-3.0363,-3.0321,-3.048,-3.0495,-3.0509,-3.056,-3.0581,-3.0339,-3.0338,-3.0337,-3.0337,0,-3.015,-3.0198,-3.0251,-3.0276,-3.0301,-3.0363,-3.0339,-3.0368,-3.0342,-3.0332,-3.0405,-3.0409,-3.0445,-3.0464,-3.0439,-3.0551,-3.053,-3.0486,-3.0416,-3.0538,-3.0585,-3.0604,-3.0348,-3.0345,-3.0343,-3.0342,0,0,-3.0354,-3.0358,-3.0379,-3.0389,-3.04,-3.0436,-3.0496,-3.053,-3.0556,-3.0574,-3.0625,-3.0683,-3.0642,-3.0659,-3.0635,-3.0682,-3.08,-3.0632,-3.0632,-3.0665,-3.0926,-3.096,-3.0983,-3.0774,-3.0777,-3.078,-3.0925,0,-3.0495,-3.0597,-3.0568,-3.0671,-3.0715,-3.0659,-3.0711,-3.0724,-3.0716,-3.0753,-3.0744,-3.0787,-3.0729,-3.0739,-3.0783,-3.0776,-3.0852,-3.0765,-3.0822,-3.0824,-3.0822,-3.1008,-3.1045,-3.1181,-3.0943,-3.0946,-3.0948,0,-3.0674,-3.0699,-3.0807,-3.081,-3.0827,-3.0875,-3.0904,-3.0939,-3.0952,-3.0943,-3.0963,-3.093,-3.0989,-3.0918,-3.1,-3.0942,-3.0963,-3.0963,-3.0968,-3.0974,-3.0895,-3.1021,-3.1224,-3.1245,-3.0977,-3.0975,-3.0973,0,-3.0814,-3.0874,-3.0947,-3.0957,-3.0962,-3.0997,-3.1001,-3.101,-3.1033,-3.1058,-3.1072,-3.1104,-3.1123,-3.1149,-3.1125,-3.1075,-3.1212,-3.1138,-3.1208,-3.1209,-3.1241,-3.1239,-3.1452,-3.1251,-3.1251,-3.125,-3.125,0,-3.0976,-3.1044,-3.101,-3.1055,-3.113,-3.1095,-3.117,-3.1168,-3.1176,-3.122,-3.1173,-3.1216,-3.1181,-3.122,-3.1202,-3.1274,-3.1282,-3.1278,-3.1272,-3.1283,-3.1284,-3.1298,-3.1289,-3.1256,-3.1255,-3.1254,-3.1253,0,-3.1146,-3.1125,-3.12,-3.1199,-3.12,-3.1256,-3.1254,-3.1296,-3.1285,-3.1341,-3.1352,-3.1335,-3.1379,-3.1357,-3.1403,-3.139,-3.1484,-3.1465,-3.148,-3.1476,-3.1547,-3.1541,-3.1778,-3.1808,-3.1586,-3.1588,-3.1589,0,-3.1251,-3.1303,-3.1306,-3.1332,-3.1339,-3.1381,-3.1404,-3.1371,-3.1397,-3.1416,-3.1456,-3.1495,-3.1525,-3.1598,-3.159,-3.1625,-3.1608,-3.1688,-3.1613,-3.1623,-3.1612,-3.161,-3.1615,-3.1705,-3.1707,-3.1709,-3.1711,0,-3.1442,-3.1429,-3.1463,-3.1494,-3.1522,-3.1545,-3.1564,-3.1588,-3.1556,-3.1588,-3.1632,-3.1655,-3.1702,-3.1742,-3.1773,-3.1777,-3.174,-3.1734,-3.1752,-3.1765,-3.1772,-3.1771,-3.1523,-3.173,-3.1728,-3.1726,-3.1725,-3.1725,-3.1584,-3.1628,-3.1637,-3.1677,-3.1688,-3.1706,-3.1746,-3.1739,-3.1775,-3.181,-3.1789,-3.1841,-3.1853,-3.189,-3.1899,-3.194,-3.1908,-3.1934,-3.1941,-3.1949,-3.1959,-3.1764,-3.1945,-3.1945,-3.1944,-3.1944,-3.1943,0,-3.1774,-3.1777,-3.1814,-3.1842,-3.1874,-3.1834,-3.1853,-3.1882,-3.1928,-3.1942,-3.1973,-3.2024,-3.2063,-3.2057,-3.2093,-3.2127,-3.2111,-3.2138,-3.2136,-3.2138,-3.1985,-3.1966,-3.215,-3.215,-3.215,-3.215,-3.215,-3.215,-3.1877,-3.1949,-3.1937,-3.2014,-3.2016,-3.2067,-3.2081,-3.2098,-3.2109,-3.2169,-3.2201,-3.2196,-3.2203,-3.2239,-3.2273,-3.227,-3.2287,-3.232,-3.2312,-3.2169,-3.2149,-3.2129,-3.2112,-3.2324,-3.2324,-3.2462,-3.2463,-3.2464]},{"header":{"parameterUnit":"m.s-1","parameterCategory":1,"la1":30.2991,"la2":30.254,"lo1":-89.0895,"lo2":-89.0444,"dy":0.0017,"dx":0.0017,"nx":28,"ny":28,"refTime":"2025-12-15T09:00:00:Z","depth":0,"parameterNumber":3,"parameterNumberName":"V-component_of_WINDS"},"data":[0,0,0,0,0,0,0,0,0,0,0,0,0,0,0,0,0,0,0,0,0,0,0,0,0,0,0,0,0,0,0,0,0,0,0,0,0,0,0,0,0,0,0,0,0,0,0,0,0,0,0,0,0,0,0,0,0,0,-3.5745,-3.5745,0,-3.5743,-3.5743,-3.5743,-3.5712,-3.5711,-3.571,-3.5709,-3.5707,-3.5708,-3.5709,0,0,0,0,0,0,0,0,0,0,0,0,0,-3.572,-3.5721,-3.5745,-3.5745,-3.5745,-3.5743,-3.5743,-3.5743,-3.5712,-3.5711,-3.571,-3.5709,-3.5707,-3.5708,-3.5709,0,0,0,0,0,0,0,0,0,0,0,0,0,-3.5726,-3.5721,-3.5745,-3.5729,-3.5727,-3.5743,-3.5743,-3.5743,-3.5712,-3.5711,-3.5709,-3.5708,-3.5707,-3.5708,-3.5709,-3.5739,0,0,-3.5712,-3.5712,0,0,0,0,0,0,0,0,-3.5726,-3.5727,-3.5731,-3.573,-3.5728,-3.5726,-3.5733,-3.5741,-3.5712,-3.5718,-3.5709,-3.5708,-3.5714,-3.5715,-3.5717,-3.5739,-3.5739,-3.5712,-3.5713,-3.5713,-3.5713,0,0,0,0,0,0,0,-3.5725,-3.5727,-3.5744,-3.5731,-3.573,-3.5722,-3.5721,-3.5735,-3.5723,-3.5717,-3.5715,-3.5715,-3.5713,-3.5716,-3.5717,-3.5739,-3.5712,-3.5713,-3.5714,-3.5714,-3.5784,-3.5785,0,0,0,0,0,0,-3.5727,-3.5727,-3.5744,-3.5744,-3.5724,-3.5723,-3.5722,-3.5728,-3.5723,-3.5721,-3.5716,-3.5714,-3.5715,-3.5716,-3.5717,-3.5751,-3.5713,-3.5714,-3.5715,-3.5783,-3.5784,-3.5786,0,0,0,0,0,0,-3.5727,-3.5729,-3.5744,-3.5735,-3.5736,-3.5725,-3.5731,-3.5729,-3.5731,-3.5722,-3.5719,-3.5721,-3.5714,-3.5715,-3.5733,-3.575,-3.5714,-3.5715,-3.5781,-3.5783,-3.5785,-3.582,0,0,0,0,0,0,-3.5726,-3.5729,-3.5741,-3.5735,-3.5737,-3.5761,-3.5732,-3.5729,-3.5733,-3.573,-3.5726,-3.5724,-3.5713,-3.5732,-3.5734,-3.5751,-3.5716,-3.578,-3.5782,-3.5785,-3.5817,-3.5823,-3.5828,0,0,0,0,0,-3.5725,-3.5751,-3.5742,-3.5744,-3.5751,-3.5762,-3.5763,-3.575,-3.5735,-3.5746,-3.574,-3.5724,-3.5748,-3.5734,-3.5737,-3.5754,-3.5779,-3.5782,-3.5784,-3.5815,-3.5822,-3.5828,0,0,0,0,0,0,-3.5759,-3.575,-3.5739,-3.5764,-3.5764,-3.5757,-3.5771,-3.5758,-3.5762,-3.5759,-3.5743,-3.5742,-3.5763,-3.576,-3.5745,-3.5782,-3.5761,-3.5764,-3.5783,-3.579,-3.5795,-3.5795,-3.5717,0,0,0,0,0,-3.5769,-3.578,-3.5771,-3.5793,-3.5794,-3.5783,-3.5787,-3.5777,-3.5776,-3.5776,-3.5771,-3.5772,-3.5779,-3.5784,-3.5791,-3.5817,-3.5815,-3.583,-3.5835,-3.5839,-3.5842,-3.5855,-3.5861,-3.5795,-3.5795,-3.5795,0,0,-3.5791,-3.5787,-3.5795,-3.58,-3.5799,-3.5809,-3.5783,-3.5795,-3.5803,-3.5778,-3.5795,-3.5791,-3.579,-3.5812,-3.5822,-3.5811,-3.586,-3.5843,-3.5846,-3.5847,-3.5859,-3.5865,-3.5871,-3.5797,-3.5797,-3.5796,0,0,-3.5835,-3.5834,-3.5851,-3.5851,-3.5849,-3.5841,-3.5846,-3.584,-3.5837,-3.5853,-3.5835,-3.5843,-3.5857,-3.5856,-3.5858,-3.5901,-3.5886,-3.5903,-3.593,-3.5943,-3.5948,-3.5953,-3.5967,-3.5973,-3.5907,-3.5907,-3.5907,0,-3.5862,-3.5877,-3.5862,-3.5876,-3.5878,-3.5856,-3.5874,-3.5874,-3.5875,-3.5877,-3.5864,-3.588,-3.5878,-3.5899,-3.5909,-3.5912,-3.5916,-3.5904,-3.5949,-3.5953,-3.5957,-3.5971,-3.5976,-3.5909,-3.5908,-3.5908,-3.5908,0,-3.5909,-3.592,-3.5935,-3.5935,-3.594,-3.5955,-3.5943,-3.5949,-3.5938,-3.5931,-3.5948,-3.5944,-3.5949,-3.5953,-3.5943,-3.5973,-3.5966,-3.5952,-3.5929,-3.5966,-3.5978,-3.5983,-3.5912,-3.5911,-3.591,-3.591,0,0,-3.5975,-3.5967,-3.5972,-3.5972,-3.5968,-3.5976,-3.599,-3.5995,-3.6,-3.6001,-3.6012,-3.6023,-3.6009,-3.6011,-3.6001,-3.6012,-3.6045,-3.5996,-3.5996,-3.6004,-3.6077,-3.6087,-3.6094,-3.6036,-3.6037,-3.6037,-3.6076,0,-3.6017,-3.604,-3.6027,-3.6053,-3.6062,-3.604,-3.6053,-3.6052,-3.6045,-3.6052,-3.6045,-3.6053,-3.6035,-3.6036,-3.6046,-3.6039,-3.6059,-3.6036,-3.6045,-3.6046,-3.6046,-3.61,-3.6112,-3.6149,-3.6081,-3.6082,-3.6083,0,-3.6069,-3.6072,-3.6098,-3.6091,-3.6095,-3.6106,-3.6108,-3.6115,-3.6113,-3.6108,-3.6109,-3.6096,-3.6109,-3.6087,-3.6104,-3.6089,-3.6092,-3.6089,-3.609,-3.609,-3.6066,-3.6101,-3.616,-3.6166,-3.609,-3.609,-3.6089,0,-3.6113,-3.6123,-3.614,-3.614,-3.6134,-3.6142,-3.6139,-3.6136,-3.6139,-3.6141,-3.6143,-3.6147,-3.6149,-3.6152,-3.614,-3.6125,-3.6158,-3.6136,-3.6154,-3.6154,-3.6161,-3.6161,-3.6221,-3.6164,-3.6164,-3.6164,-3.6164,0,-3.6161,-3.6178,-3.616,-3.617,-3.6187,-3.6172,-3.619,-3.6185,-3.6182,-3.6191,-3.6173,-3.6181,-3.6165,-3.6172,-3.6162,-3.6177,-3.6179,-3.6174,-3.6171,-3.6176,-3.6176,-3.6177,-3.6174,-3.6166,-3.6165,-3.6165,-3.6165,0,-3.6213,-3.6202,-3.6219,-3.621,-3.6209,-3.6222,-3.6215,-3.6224,-3.6216,-3.6227,-3.6229,-3.6217,-3.6224,-3.6212,-3.6217,-3.6211,-3.6232,-3.6225,-3.6232,-3.623,-3.6248,-3.6247,-3.6311,-3.6318,-3.6258,-3.6258,-3.6259,0,-3.6244,-3.6256,-3.6249,-3.6253,-3.6252,-3.6259,-3.6262,-3.6247,-3.6251,-3.6249,-3.6258,-3.6263,-3.6266,-3.6278,-3.627,-3.6274,-3.6267,-3.6289,-3.6267,-3.6271,-3.6266,-3.6265,-3.6266,-3.6293,-3.6294,-3.6295,-3.6295,0,-3.63,-3.6294,-3.6298,-3.6301,-3.6305,-3.6306,-3.6306,-3.6311,-3.6295,-3.63,-3.6306,-3.6309,-3.6314,-3.6319,-3.6321,-3.6318,-3.6304,-3.6302,-3.6306,-3.631,-3.6314,-3.6311,-3.6244,-3.6301,-3.63,-3.63,-3.6299,-3.6299,-3.6342,-3.6351,-3.6347,-3.6353,-3.6351,-3.6352,-3.6359,-3.6352,-3.6357,-3.636,-3.6351,-3.6359,-3.6356,-3.6357,-3.6356,-3.6362,-3.6352,-3.6358,-3.636,-3.6361,-3.6364,-3.6313,-3.6362,-3.6362,-3.6362,-3.6362,-3.6362,0,-3.6396,-3.6392,-3.6398,-3.6398,-3.6402,-3.6388,-3.6387,-3.6392,-3.6399,-3.6397,-3.6401,-3.6408,-3.6413,-3.6405,-3.6408,-3.6414,-3.6408,-3.6415,-3.6415,-3.6414,-3.6373,-3.6369,-3.6421,-3.6421,-3.6421,-3.6421,-3.6421,-3.6421,-3.6425,-3.644,-3.6432,-3.6446,-3.6442,-3.645,-3.645,-3.645,-3.6448,-3.6457,-3.646,-3.6455,-3.6451,-3.6453,-3.6457,-3.6454,-3.6456,-3.6466,-3.6461,-3.6423,-3.6417,-3.6411,-3.6407,-3.6467,-3.6467,-3.6501,-3.6502,-3.6502]}]]